This demonstration page uses our WeatherBlox Daily Observations layout. Learn more.

Left ArrowRight Arrow

38.80484, -77.04692

Hourly Observations for December 28, 2021

Temp ( °F °C ) Dew Point ( °F °C ) Humidity (%) Winds ( mph kmh ) Pressure ( in mb ) Visibility ( mi km ) Precip ( " mm )
12:52 am 00:52 Cloudy 41 5 35 1.7 79 79 N 5 7 29.83 1010 10 16 0.00 0.00
1:52 am 01:52 Cloudy 41 5 37 2.8 86 86 N 7 11 29.83 1010 10 16 0.00 0.00
2:52 am 02:52 Mostly Cloudy 41 5 36 2.2 82 82 ENE 5 7 29.84 1011 10 16 0.00 0.00
3:52 am 03:52 Cloudy 40 4.4 36 2.2 86 86 ENE 5 7 29.85 1011 10 16 0.00 0.00
4:52 am 04:52 Mostly Cloudy 40 4.4 35 1.7 83 83 Calm 29.87 1012 10 16 0.00 0.00
5:52 am 05:52 Cloudy 41 5 36 2.2 82 82 Calm 29.89 1012 10 16 0.00 0.00
6:52 am 06:52 Cloudy 41 5 37 2.8 86 86 VRB 3 6 29.91 1013 10 16 0.00 0.00
7:52 am 07:52 Cloudy 42 5.6 37 2.8 82 82 SSW 3 6 29.95 1014 10 16 0.00 0.00
8:52 am 08:52 Mostly Cloudy 45 7.2 36 2.2 71 71 NNE 3 6 29.96 1015 10 16 0.00 0.00
9:52 am 09:52 Mostly Cloudy 45 7.2 39 3.9 80 80 S 7 11 29.98 1015 10 16 0.00 0.00
10:52 am 10:52 Mostly Cloudy 51 10.6 37 2.8 59 59 ENE 3 6 29.96 1015 10 16 0.00 0.00
11:52 am 11:52 Cloudy 55 12.8 34 1.1 45 45 N 6 9 29.94 1014 10 16 0.00 0.00
12:52 pm 12:52 Cloudy 56 13.3 29 -1.7 36 36 E 7 11 29.91 1013 10 16 0.00 0.00
1:52 pm 13:52 Cloudy 57 13.9 28 -2.2 33 33 NNW 3 6 29.87 1012 10 16 0.00 0.00
2:52 pm 14:52 Cloudy 54 12.2 30 -1.1 40 40 SSE 5 7 29.86 1011 10 16 0.00 0.00
3:52 pm 15:52 Cloudy 56 13.3 24 -4.4 29 29 SSW 3 6 29.88 1012 10 16 0.00 0.00
4:52 pm 16:52 Cloudy 54 12.2 26 -3.3 34 34 Calm 29.87 1012 10 16 0.00 0.00
5:52 pm 17:52 Cloudy 53 11.7 28 -2.2 38 38 Calm 29.87 1012 10 16 0.00 0.00
6:52 pm 18:52 Cloudy 53 11.7 31 -0.6 43 43 SE 12 19 29.82 1010 10 16 0.00 0.00
7:52 pm 19:52 Cloudy 54 12.2 31 -0.6 42 42 S 6 9 29.84 1011 10 16 0.00 0.00
8:52 pm 20:52 Cloudy 51 10.6 34 1.1 52 52 NE 6 9 29.84 1011 10 16 0.00 0.00
9:52 pm 21:52 Cloudy with Light Rain 51 10.6 30 -1.1 44 44 SSE 6 9 29.80 1009 10 16 0.00 0.00
10:39 pm 22:39 Cloudy 52 11.1 30 -1.1 43 43 SE 5 7 29.78 1008 10 16 0.00 0.00
10:52 pm 22:52 Cloudy 52 11.1 31 -0.6 45 45 SE 7 11 29.76 1008 10 16 0.00 0.00
11:52 pm 23:52 Cloudy 51 10.6 31 -0.6 46 46 SSE 5 7 29.74 1007 10 16 0.00 0.00

Powered by AerisWeather